Paducah, KY

1:59 PM CDT on September 25, 2017 (GMT -0500)
Barkley Regional

Weather History for KPAH - September, 2012

Change the Weather History Date:

Wednesday, September 5, 2012

  Actual Average Record
Temperature  
Mean Temperature 81 °F 74 °F  
Max Temperature 90 °F 86 °F 104 °F (1954)
Min Temperature 71 °F 62 °F 45 °F (1997)
Degree Days  
Heating Degree Days 0 0  
Month to date heating degree days 0 0  
Since 1 July heating degree days 0 1  
Cooling Degree Days 16 9  
Month to date cooling degree days 72 48  
Year to date cooling degree days 1853 1361  
Growing Degree Days 31 (Base 50)    
Moisture  
Dew Point 71 °F    
Average Humidity 75    
Maximum Humidity 93    
Minimum Humidity 56    
Precipitation  
Precipitation T in 0.11 in 7.49 in (1985)
Month to date precipitation 2.35 0.52  
Year to date precipitation 18.47 33.00  
Snow  
Snow 0.00 in 0.00 in 0.00 in (2002)
Month to date snowfall 0.0 0.0  
Since 1 July snowfall 0.0 0.0  
Since 1 September snowfall 0.0 0.0  
Snow Depth 0.00 in    
Sea Level Pressure  
Sea Level Pressure 29.84 in    
Wind  
Wind Speed 5 mph (SSE)    
Max Wind Speed 20 mph    
Max Gust Speed 25 mph    
Visibility 8 miles    
Events Rain , Thunderstorm    
T = Trace of Precipitation, MM = Missing Value Source: NWS Daily Summary

Daily Weather History Graph

Daily Weather History Graph

Search for Another Location

Airport or City:

Trip Planner

Search our weather history database for the weather conditions in past years. The results will help you decide how hot, cold, wet, or windy it might be!

Date:

Astronomy

Sep. 05, 2012 Rise Set
Actual Time 6:29 AM CDT 7:17 PM CDT
Civil Twilight 6:03 AM CDT 7:43 PM CDT
Nautical Twilight 5:31 AM CDT 8:14 PM CDT
Astronomical Twilight 4:59 AM CDT 8:46 PM CDT
Moon 9:55 PM CDT (9/5) 11:24 AM CDT (9/5)
Length of Visible Light 13h 40m
Length of Day
12h 47m
Waning Gibbous, 76% of the Moon is Illuminated
Sep 5
Waning Gibbous
Sep 8
Last Quarter
Sep 15
New
Sep 22
First Quarter
Sep 29
Full

Hourly Weather History & Observations

Time (CDT) Temp. Heat Index Dew Point Humidity Pressure Visibility Wind Dir Wind Speed Gust Speed Precip Events Conditions
12:53 AM 75.9 °F - 71.1 °F 85% 29.83 in 8.0 mi Calm Calm - N/A   Clear
1:53 AM 77.0 °F - 71.6 °F 83% 29.84 in 9.0 mi South 4.6 mph - N/A   Clear
2:53 AM 75.9 °F - 71.1 °F 85% 29.83 in 8.0 mi South 4.6 mph - N/A   Clear
3:53 AM 77.0 °F - 70.0 °F 79% 29.83 in 8.0 mi SSW 4.6 mph - N/A   Clear
4:53 AM 77.0 °F - 70.0 °F 79% 29.83 in 7.0 mi South 3.5 mph - N/A   Clear
5:53 AM 75.9 °F - 70.0 °F 82% 29.84 in 7.0 mi South 3.5 mph - N/A   Clear
6:53 AM 75.9 °F - 71.1 °F 85% 29.85 in 6.0 mi Calm Calm - N/A   Haze
7:13 AM 77.0 °F - 71.6 °F 83% 29.87 in 6.0 mi Calm Calm - N/A Thunderstorm Thunderstorm
7:33 AM 75.2 °F - 71.6 °F 89% 29.87 in 6.0 mi SSW 5.8 mph - N/A   Haze
7:53 AM 77.0 °F - 71.1 °F 82% 29.86 in 6.0 mi South 3.5 mph - 0.00 in Rain Light Rain
8:53 AM 78.1 °F - 72.0 °F 81% 29.84 in 6.0 mi South 5.8 mph - 0.00 in   Haze
9:53 AM 82.0 °F 87.4 °F 73.0 °F 74% 29.84 in 8.0 mi South 6.9 mph - N/A   Mostly Cloudy
10:53 AM 84.9 °F 91.4 °F 73.0 °F 67% 29.84 in 9.0 mi South 8.1 mph - 0.00 in   Mostly Cloudy
11:53 AM 89.1 °F 96.0 °F 72.0 °F 57% 29.83 in 10.0 mi South 5.8 mph - 0.00 in   Clear
12:53 PM 88.0 °F 94.7 °F 72.0 °F 59% 29.83 in 10.0 mi SSE 5.8 mph - N/A   Partly Cloudy
1:53 PM 88.0 °F 94.7 °F 72.0 °F 59% 29.82 in 10.0 mi East 6.9 mph - 0.00 in   Mostly Cloudy
2:53 PM 90.0 °F 97.9 °F 73.0 °F 57% 29.81 in 10.0 mi East 4.6 mph - N/A   Partly Cloudy
3:53 PM 84.0 °F 88.4 °F 70.0 °F 63% 29.78 in 10.0 mi NE 15.0 mph - N/A   Clear
4:53 PM 81.0 °F 84.9 °F 71.1 °F 72% 29.78 in 10.0 mi ENE 9.2 mph - N/A   Clear
5:53 PM 79.0 °F - 72.0 °F 79% 29.80 in 9.0 mi ESE 6.9 mph - N/A   Clear
6:53 PM 78.1 °F - 72.0 °F 81% 29.81 in 9.0 mi South 8.1 mph - N/A   Clear
7:53 PM 77.0 °F - 71.1 °F 82% 29.82 in 10.0 mi Calm Calm - N/A   Clear
8:53 PM 75.0 °F - 71.1 °F 87% 29.84 in 9.0 mi Calm Calm - N/A   Clear
9:53 PM 73.9 °F - 71.1 °F 91% 29.86 in 10.0 mi Calm Calm - N/A   Clear
10:53 PM 72.0 °F - 70.0 °F 93% 29.86 in 6.0 mi Calm Calm - N/A   Clear
11:33 PM 73.4 °F - 71.6 °F 94% 29.88 in 7.0 mi Calm Calm - N/A   Mostly Cloudy
11:53 PM 73.0 °F - 70.0 °F 90% 29.88 in 10.0 mi South 4.6 mph - N/A   Overcast